Weather reports worldwide

Advertisment
Isle Of Portland, United Kingdom (3857): temperature & dewpoint: 03.04.2020 10:00:00 - 09.04.2020 10:00:00 (BST)Isle Of Portland, United Kingdom (3857): wind speed & gusts: 03.04.2020 10:00:00 - 09.04.2020 10:00:00 (BST)Isle Of Portland, United Kingdom (3857): wind direction: 03.04.2020 10:00:00 - 09.04.2020 10:00:00 (BST)Isle Of Portland, United Kingdom (3857): reduced air pressure: 03.04.2020 10:00:00 - 09.04.2020 10:00:00 (BST)Isle Of Portland, United Kingdom (3857): visibility: 03.04.2020 10:00:00 - 09.04.2020 10:00:00 (BST)Isle Of Portland, United Kingdom (3857): precipitation: 03.04.2020 10:00:00 - 09.04.2020 10:00:00 (BST)
Date & Time tt [°C] td [°C] ff [km/h] ff [kn] fx [km/h] fx [kn] dd ppp [hPa] vv [km] rr [mm]
09.04.2020 10:00:00 15,7 9,0 22 12 - - ENE 1023,9 8 0,0
09.04.2020 09:00:00 14,3 8,9 18 10 - - ENE 1023,7 8 0,0
09.04.2020 08:00:00 13,4 9,2 5 3 - - NE 1023,6 5 0,0
09.04.2020 07:00:00 11,5 7,7 16 9 - - E 1023,1 5 0,0
09.04.2020 06:00:00 11,3 7,8 15 8 - - ENE 1022,8 8 0,0
09.04.2020 05:00:00 11,3 8,6 21 11 - - E 1022,9 7 0,0
09.04.2020 04:00:00 9,8 8,1 16 9 - - ENE 1023,1 3,7 0,0
09.04.2020 03:00:00 10,6 8,2 15 8 - - E 1023,2 6 0,0
09.04.2020 02:00:00 10,7 7,3 9 5 - - E 1023,5 10 0,0
09.04.2020 01:00:00 12,5 8,0 2 1 - - N 1023,6 15 0,0
09.04.2020 00:00:00 12,6 8,7 5 3 - - NE 1023,7 9 0,0
08.04.2020 23:00:00 11,3 8,2 8 4 - - N 1023,8 6 0,0
08.04.2020 22:00:00 10,8 8,2 9 5 - - NNW 1023,8 6 0,0
08.04.2020 21:00:00 10,6 8,2 5 3 - - NNW 1023,7 6 0,0
08.04.2020 20:00:00 11,3 7,8 5 3 - - NNW 1023,3 6 0,0
08.04.2020 19:00:00 12,9 8,2 4 2 - - E 1023,1 8 0,0
08.04.2020 18:00:00 14,1 9,1 5 3 - - NE 1023,0 9 0,0
08.04.2020 17:00:00 13,6 8,6 13 7 - - E 1023,1 9 0,0
08.04.2020 16:00:00 14,3 9,0 9 5 - - E 1023,6 11 0,0
08.04.2020 15:00:00 14,8 8,3 15 8 - - ESE 1023,6 9 0,0
08.04.2020 14:00:00 14,9 8,3 15 8 - - ESE 1023,8 14 0,0
08.04.2020 13:00:00 15,9 8,4 16 9 - - E 1024,0 20 0,0
08.04.2020 12:00:00 16,1 7,9 15 8 - - E 1024,2 16 0,0
08.04.2020 11:00:00 14,6 7,4 21 11 - - ENE 1024,3 20 0,0
08.04.2020 10:00:00 14,7 6,8 22 12 - - ENE 1024,4 35 0,0
08.04.2020 09:00:00 13,5 6,1 16 9 - - NE 1024,4 30 0,0
08.04.2020 08:00:00 12,7 5,4 21 11 - - ENE 1024,0 40 0,0
08.04.2020 07:00:00 12,6 5,0 21 11 - - ENE 1024,1 45 0,0
08.04.2020 06:00:00 12,5 4,5 24 13 - - ENE 1023,7 40 0,0
08.04.2020 05:00:00 12,7 4,2 15 8 - - NE 1024,2 40 0,0
08.04.2020 04:00:00 12,8 4,3 21 11 - - ENE 1024,4 45 0,0
08.04.2020 03:00:00 12,8 3,8 22 12 - - ENE 1025,0 35 0,0
08.04.2020 02:00:00 11,9 3,2 24 13 - - ENE 1025,4 40 0,0
08.04.2020 01:00:00 12,4 1,9 24 13 - - ENE 1025,8 50 0,0
08.04.2020 00:00:00 12,3 3,2 22 12 - - ENE 1025,8 40 0,0
07.04.2020 23:00:00 11,7 4,0 21 11 - - ENE 1026,2 30 0,0
07.04.2020 22:00:00 10,9 3,9 22 12 - - E 1026,4 50 0,0
07.04.2020 21:00:00 11,1 4,5 22 12 - - E 1026,5 45 0,0
07.04.2020 20:00:00 10,7 5,7 21 11 - - ENE 1026,3 35 0,0
07.04.2020 19:00:00 10,8 6,1 15 8 - - ENE 1026,8 30 0,0
07.04.2020 18:00:00 10,9 6,4 18 10 - - ENE 1027,0 27 0,0
07.04.2020 17:00:00 10,5 8,1 21 11 - - ENE 1027,3 19 0,0
07.04.2020 16:00:00 10,8 7,7 24 13 - - E 1027,8 16 0,0
07.04.2020 15:00:00 11,3 7,8 24 13 - - E 1028,1 22 0,0
07.04.2020 14:00:00 11,6 8,5 22 12 - - E 1028,4 20 0,0
07.04.2020 13:00:00 11,0 8,2 21 11 - - E 1028,7 12 0,0
07.04.2020 12:00:00 11,2 8,2 22 12 - - E 1029,0 20 0,0
07.04.2020 11:00:00 10,9 8,0 24 13 - - E 1029,3 16 0,0
07.04.2020 10:00:00 10,7 6,8 22 12 - - E 1029,3 25 0,0
07.04.2020 09:00:00 10,1 5,5 22 12 - - ENE 1029,1 24 0,0
07.04.2020 08:00:00 8,7 4,4 22 12 - - ENE 1028,9 24 0,0
07.04.2020 07:00:00 7,3 3,3 22 12 - - ENE 1028,9 20 0,0
07.04.2020 06:00:00 7,1 2,0 18 10 - - ENE 1028,6 35 0,0
07.04.2020 05:00:00 7,0 2,3 16 9 - - ENE 1028,7 30 0,0
07.04.2020 04:00:00 7,1 2,9 13 7 - - NE 1028,3 28 0,0
07.04.2020 03:00:00 7,6 3,9 9 5 - - NE 1028,2 26 0,0
07.04.2020 02:00:00 6,8 2,9 13 7 - - E 1028,0 22 0,0
07.04.2020 01:00:00 7,9 3,3 11 6 - - ENE 1027,7 30 0,0
07.04.2020 00:00:00 8,4 2,6 18 10 - - NE 1027,2 30 0,0
06.04.2020 23:00:00 8,3 3,5 11 6 - - NE 1026,4 24 0,0
06.04.2020 22:00:00 9,2 5,7 15 8 - - N 1026,2 9 0,0
06.04.2020 21:00:00 9,8 8,0 15 8 - - NW 1025,4 11 0,0
06.04.2020 20:00:00 9,5 8,0 16 9 - - W 1024,5 9 0,0
06.04.2020 19:00:00 10,1 8,5 18 10 - - WSW 1023,7 8 0,0
06.04.2020 18:00:00 10,7 8,8 22 12 - - WSW 1022,8 9 0,0
06.04.2020 17:00:00 11,4 9,0 28 15 - - WSW 1022,0 8 0,0
06.04.2020 16:00:00 11,8 9,4 24 13 - - SW 1021,4 9 0,0
06.04.2020 15:00:00 12,0 10,1 24 13 - - SW 1021,2 8 0,0
06.04.2020 14:00:00 11,9 10,1 21 11 - - SW 1020,4 10 0,0
06.04.2020 13:00:00 11,9 10,1 18 10 - - WSW 1019,6 8 0,0
06.04.2020 12:00:00 11,0 9,6 22 12 - - W 1018,6 8 0,0
06.04.2020 11:00:00 10,5 9,5 24 13 - - W 1017,6 8 0,0
06.04.2020 10:00:00 10,4 9,8 18 10 - - W 1016,3 7 0,0
06.04.2020 09:00:00 10,1 9,6 22 12 - - W 1015,2 6 0,0
06.04.2020 08:00:00 9,6 9,1 24 13 - - WSW 1013,9 5 0,0
06.04.2020 07:00:00 9,5 8,9 22 12 - - WSW 1012,6 7 0,0
06.04.2020 06:00:00 9,7 9,0 28 15 - - W 1011,3 7 0,0
06.04.2020 05:00:00 9,9 9,5 26 14 - - WSW 1010,4 12 0,0
06.04.2020 04:00:00 10,7 10,3 29 16 - - SW 1009,9 3,0 0,2
06.04.2020 03:00:00 10,7 10,1 24 13 - - S 1009,6 7 0,8
06.04.2020 02:00:00 11,4 10,1 28 15 - - SSW 1009,4 12 0,2
06.04.2020 01:00:00 11,3 9,2 24 13 - - S 1009,6 10 0,0
06.04.2020 00:00:00 12,2 8,7 28 15 - - S 1009,4 12 0,0
05.04.2020 23:00:00 12,0 8,1 29 16 - - S 1009,0 12 0,0
05.04.2020 22:00:00 11,6 8,5 28 15 - - S 1008,8 19 0,0
05.04.2020 21:00:00 11,5 8,4 24 13 - - S 1008,8 20 0,0
05.04.2020 20:00:00 11,8 8,5 28 15 - - SSE 1008,5 18 0,0
05.04.2020 19:00:00 11,3 8,8 21 11 - - SE 1008,5 13 0,0
05.04.2020 18:00:00 11,6 9,0 24 13 - - ESE 1008,4 16 0,0
05.04.2020 17:00:00 11,3 8,8 26 14 - - SE 1008,9 16 0,0
05.04.2020 16:00:00 11,7 8,5 28 15 - - ESE 1009,4 18 0,0
05.04.2020 15:00:00 12,7 9,1 24 13 - - SE 1010,1 14 0,0
05.04.2020 14:00:00 12,6 8,6 31 17 - - SE 1010,1 13 0,0
05.04.2020 13:00:00 12,5 8,8 31 17 - - SE 1010,5 14 0,0
05.04.2020 12:00:00 11,4 7,8 35 19 - - SE 1010,7 16 0,0
05.04.2020 11:00:00 11,6 7,9 37 20 46 25 ESE 1011,2 19 0,0
05.04.2020 10:00:00 11,5 7,8 35 19 46 25 ESE 1011,7 18 0,0
05.04.2020 09:00:00 10,5 7,7 37 20 - - ESE 1011,9 13 0,0
05.04.2020 08:00:00 9,8 7,4 31 17 - - ESE 1012,3 13 0,0
05.04.2020 07:00:00 9,2 6,8 34 18 - - ESE 1012,5 18 0,0
05.04.2020 06:00:00 9,2 6,7 31 17 - - ESE 1012,9 16 0,0
05.04.2020 05:00:00 9,2 6,8 35 19 - - ESE 1012,8 20 0,0
05.04.2020 04:00:00 9,3 6,9 35 19 - - ESE 1013,6 23 0,0
05.04.2020 03:00:00 9,5 7,3 34 18 - - ESE 1014,3 20 0,0
05.04.2020 02:00:00 9,2 7,5 31 17 - - ESE 1015,1 13 0,0
05.04.2020 01:00:00 9,2 7,7 34 18 - - ESE 1015,8 12 0,0
05.04.2020 00:00:00 9,0 7,6 34 18 - - ESE 1016,1 12 0,0
04.04.2020 23:00:00 8,9 7,4 35 19 - - E 1016,2 15 0,0
04.04.2020 22:00:00 8,7 7,1 29 16 - - E 1016,7 19 0,0
04.04.2020 21:00:00 8,6 7,2 28 15 - - E 1016,9 17 0,0
04.04.2020 20:00:00 8,6 7,2 24 13 - - E 1016,9 15 0,0
04.04.2020 19:00:00 9,2 7,4 24 13 - - E 1017,1 13 0,0
04.04.2020 18:00:00 9,9 7,8 24 13 - - E 1017,4 12 0,0
04.04.2020 17:00:00 10,6 8,0 26 14 - - E 1017,7 15 0,0
04.04.2020 16:00:00 11,4 8,4 24 13 - - ESE 1018,4 18 0,0
04.04.2020 15:00:00 11,3 8,3 28 15 - - ESE 1018,9 13 0,0
04.04.2020 14:00:00 12,5 9,8 22 12 - - ESE 1019,3 18 0,0
04.04.2020 13:00:00 11,2 8,3 24 13 - - ESE 1019,4 25 0,0
04.04.2020 12:00:00 11,1 8,6 24 13 - - SE 1019,9 14 0,0
04.04.2020 11:00:00 10,8 8,6 24 13 - - SE 1019,9 12 0,0
04.04.2020 10:00:00 10,2 8,9 22 12 - - SE 1019,9 20 0,0
04.04.2020 09:00:00 9,2 8,8 21 11 - - SE 1019,8 16 0,0
04.04.2020 08:00:00 8,3 7,9 21 11 - - SE 1019,8 12 0,0
04.04.2020 07:00:00 8,0 7,6 16 9 - - SE 1019,4 25 0,0
04.04.2020 06:00:00 7,6 7,3 15 8 - - SSE 1019,4 16 0,0
04.04.2020 05:00:00 7,5 7,3 11 6 - - S 1019,6 11 0,0
04.04.2020 04:00:00 7,8 7,6 13 7 - - S 1019,7 9 0,0
04.04.2020 03:00:00 8,1 7,9 11 6 - - SSW 1020,2 5 0,0
04.04.2020 02:00:00 7,8 7,5 5 3 - - SSE 1020,2 0,9 0,0
04.04.2020 01:00:00 7,9 7,6 8 4 - - S 1020,1 8 0,0
04.04.2020 00:00:00 7,9 7,4 8 4 - - SSW 1020,0 9 0,0
03.04.2020 23:00:00 8,0 7,5 4 2 - - S 1019,9 8 0,0
03.04.2020 22:00:00 8,4 7,6 9 5 - - SW 1019,9 10 0,0
03.04.2020 21:00:00 8,8 8,1 9 5 - - WSW 1019,8 13 0,0
03.04.2020 20:00:00 8,8 7,8 13 7 - - WSW 1019,5 22 0,0
03.04.2020 19:00:00 9,1 7,7 15 8 - - WSW 1019,4 29 0,0
03.04.2020 18:00:00 9,5 7,9 16 9 - - WSW 1019,3 26 0,0
03.04.2020 17:00:00 10,7 8,6 16 9 - - SW 1019,2 14 0,0
03.04.2020 16:00:00 10,9 8,0 13 7 - - WSW 1019,5 30 0,0
03.04.2020 15:00:00 10,2 7,8 9 5 - - W 1019,6 18 0,0
03.04.2020 14:00:00 10,4 6,8 11 6 - - W 1019,6 35 0,0
03.04.2020 13:00:00 10,5 7,7 13 7 - - W 1019,7 22 0,0
03.04.2020 12:00:00 10,2 8,1 16 9 - - W 1019,5 19 0,0
03.04.2020 11:00:00 9,8 7,6 15 8 - - WNW 1019,5 26 0,0
03.04.2020 10:00:00 9,7 7,9 9 5 - - NW 1018,9 22 0,0

tt = temperature
td = dewpoint
ff = wind speed
fx = gusts
dd = wind direction
ppp = reduced air pressure
vv = visibility
rr = precipitation

Next stations